Weather History for Hastings, NE

Change the Weather History Date:

Friday, April 27, 2012

  Actual Average Record
Temperature  
Mean Temperature 53 °F 55 °F  
Max Temperature 61 °F 66 °F 95 °F (1989)
Min Temperature 44 °F 43 °F 25 °F (1950)
Degree Days  
Heating Degree Days 12 11  
Month to date heating degree days 266 403  
Since 1 July heating degree days 4999 5810  
Cooling Degree Days 0 0  
Month to date cooling degree days 21 0  
Year to date cooling degree days 41 0  
Growing Degree Days 4 (Base 50)    
Moisture  
Dew Point 48 °F    
Average Humidity 78    
Maximum Humidity 100    
Minimum Humidity 55    
Precipitation  
Precipitation 0.67 in 0.12 in 1.02 in (1963)
Month to date precipitation 2.95 2.16  
Year to date precipitation 5.62 4.85  
Snow  
Snow 0.00 in 0.00 in T in (2008)
Month to date snowfall 0.0 1.2  
Since 1 July snowfall 22.5 28.8  
Snow Depth 0.00 in    
Sea Level Pressure  
Sea Level Pressure 29.62 in    
Wind  
Wind Speed 16 mph (East)    
Max Wind Speed 28 mph    
Max Gust Speed 44 mph    
Visibility 8 miles    
Events Rain , Thunderstorm    
T = Trace of Precipitation, MM = Missing Value Source: NWS Daily Summary

Daily Weather History Graph

Daily Weather History Graph

Search for Another Location

Airport:

Trip Planner

Search our weather history database for the weather conditions in past years. The results will help you decide how hot, cold, wet, or windy it might be!

Date:

Astronomy

Apr. 27, 2012 Rise Set
Actual Time 6:37 AM CDT 8:26 PM CDT
Civil Twilight 6:07 AM CDT 8:55 PM CDT
Nautical Twilight 5:32 AM CDT 9:31 PM CDT
Astronomical Twilight 4:54 AM CDT 10:09 PM CDT
Moon 11:16 AM CDT (4/27) 1:14 AM CDT (4/27)
Length of Visible Light 14h 47m
Length of Day
13h 48m
Waxing Crescent, 33% of the Moon is Illuminated
Apr 27
Waxing Crescent
Apr 29
First Quarter
May 5
Full
May 12
Last Quarter
May 20
New

Hourly Weather History & Observations

Time (CDT) Temp. Windchill Dew Point Humidity Pressure Visibility Wind Dir Wind Speed Gust Speed Precip Events Conditions
12:53 AM 61.0 °F - 45.0 °F 56% 29.84 in 10.0 mi ESE 15.0 mph 26.5 mph N/A   Clear
1:53 AM 59.0 °F - 46.0 °F 62% 29.79 in 10.0 mi ESE 20.7 mph 26.5 mph N/A   Clear
2:53 AM 57.9 °F - 45.0 °F 62% 29.78 in 10.0 mi ESE 16.1 mph 27.6 mph N/A   Clear
3:53 AM 57.0 °F - 44.1 °F 62% 29.73 in 10.0 mi ESE 17.3 mph 32.2 mph N/A   Clear
4:53 AM 57.0 °F - 43.0 °F 59% 29.77 in 10.0 mi ESE 15.0 mph 25.3 mph N/A   Clear
5:53 AM 55.0 °F - 44.1 °F 67% 29.78 in 10.0 mi ESE 13.8 mph - 0.00 in   Mostly Cloudy
6:53 AM 54.0 °F - 42.1 °F 64% 29.74 in 10.0 mi ESE 18.4 mph 27.6 mph 0.00 in   Partly Cloudy
7:53 AM 55.0 °F - 42.1 °F 62% 29.70 in 10.0 mi East 18.4 mph 26.5 mph N/A   Mostly Cloudy
8:53 AM 57.0 °F - 42.1 °F 57% 29.68 in 10.0 mi ESE 19.6 mph 35.7 mph N/A   Mostly Cloudy
9:53 AM 57.9 °F - 44.1 °F 60% 29.64 in 10.0 mi East 23.0 mph 33.4 mph N/A   Overcast
10:29 AM 57.2 °F - 44.6 °F 63% 29.64 in 10.0 mi ESE 19.6 mph 29.9 mph 0.00 in Thunderstorm Overcast
10:53 AM 57.9 °F - 46.9 °F 67% 29.57 in 10.0 mi East 23.0 mph 31.1 mph 0.00 in   Overcast
11:04 AM 59.0 °F - 46.4 °F 63% 29.58 in 10.0 mi East 20.7 mph 32.2 mph N/A Thunderstorm Thunderstorm
11:26 AM 55.4 °F - 48.2 °F 77% 29.61 in 1.5 mi East 15.0 mph 28.8 mph 0.20 in Rain , Thunderstorm Heavy Thunderstorms and Rain
11:35 AM 55.4 °F - 50.0 °F 82% 29.61 in 2.0 mi East 16.1 mph 23.0 mph 0.23 in Rain , Thunderstorm Light Thunderstorms and Rain
11:42 AM 55.4 °F - 50.0 °F 82% 29.61 in 10.0 mi ESE 12.7 mph 24.2 mph 0.23 in Rain , Thunderstorm Light Thunderstorms and Rain
11:53 AM 55.9 °F - 50.0 °F 80% 29.58 in 10.0 mi ESE 17.3 mph 24.2 mph 0.23 in Thunderstorm Overcast
12:08 PM 55.4 °F - 50.0 °F 82% 29.59 in 10.0 mi ESE 16.1 mph 27.6 mph 0.00 in Rain , Thunderstorm Light Rain
12:34 PM 53.6 °F - 50.0 °F 88% 29.58 in 2.0 mi ESE 21.9 mph 32.2 mph 0.09 in Rain , Thunderstorm Light Thunderstorms and Rain
12:42 PM 53.6 °F - 50.0 °F 88% 29.57 in 5.0 mi ESE 19.6 mph 35.7 mph 0.09 in Rain , Thunderstorm Light Thunderstorms and Rain
12:53 PM 54.0 °F - 50.0 °F 86% 29.54 in 5.0 mi ESE 25.3 mph 38.0 mph 0.11 in Rain Light Rain
1:53 PM 55.9 °F - 52.0 °F 87% 29.52 in 7.0 mi ESE 21.9 mph 36.8 mph 0.00 in Rain Light Rain
2:53 PM 55.9 °F - 51.1 °F 84% 29.50 in 10.0 mi ESE 17.3 mph 28.8 mph 0.00 in   Overcast
3:32 PM 55.4 °F - 51.8 °F 88% 29.51 in 8.0 mi ESE 19.6 mph 33.4 mph 0.00 in Rain , Thunderstorm Light Rain
3:51 PM 55.4 °F - 51.8 °F 88% 29.54 in 1.8 mi SE 21.9 mph 28.8 mph 0.09 in Rain , Thunderstorm Heavy Rain
3:53 PM 55.0 °F - 52.0 °F 89% 29.51 in 1.5 mi ESE 21.9 mph 28.8 mph 0.13 in Rain , Thunderstorm Heavy Rain
4:05 PM 53.6 °F - 51.8 °F 94% 29.51 in 2.0 mi East 18.4 mph 32.2 mph 0.06 in Rain , Thunderstorm Thunderstorms and Rain
4:18 PM 53.6 °F - 51.8 °F 94% 29.51 in 3.0 mi East 17.3 mph - 0.07 in Rain , Thunderstorm Light Thunderstorms and Rain
4:53 PM 53.1 °F - 50.0 °F 89% 29.48 in 10.0 mi East 19.6 mph 28.8 mph 0.09 in   Mostly Cloudy
5:53 PM 54.0 °F - 50.0 °F 86% 29.50 in 10.0 mi East 15.0 mph 24.2 mph N/A   Mostly Cloudy
6:53 PM 55.0 °F - 51.1 °F 86% 29.52 in 10.0 mi ESE 10.4 mph 18.4 mph 0.00 in   Overcast
7:34 PM 53.6 °F - 50.0 °F 88% 29.57 in 10.0 mi East 9.2 mph - 0.00 in   Overcast
7:49 PM 53.6 °F - 48.2 °F 82% 29.59 in 10.0 mi NNE 5.8 mph - 0.00 in   Overcast
7:53 PM 53.1 °F - 50.0 °F 89% 29.59 in 10.0 mi North 3.5 mph - 0.00 in   Overcast
8:53 PM 51.1 °F - 48.9 °F 92% 29.62 in 5.0 mi North 6.9 mph - 0.02 in Rain Rain
9:07 PM 50.0 °F - 48.2 °F 94% 29.64 in 4.0 mi North 10.4 mph 20.7 mph 0.04 in Rain Rain
9:53 PM 48.9 °F - 48.0 °F 97% 29.67 in 6.0 mi North 11.5 mph - 0.06 in Rain Light Rain
10:05 PM 48.2 °F - 46.4 °F 93% 29.68 in 6.0 mi North 13.8 mph - 0.00 in Rain Light Rain
10:51 PM 46.4 °F 41.5 °F 44.6 °F 93% 29.69 in 8.0 mi North 10.4 mph 21.9 mph 0.03 in   Mostly Cloudy
10:53 PM 46.4 °F 41.1 °F 44.6 °F 93% 29.70 in 8.0 mi North 11.5 mph - N/A   Scattered Clouds
11:53 PM 45.0 °F 41.2 °F 44.1 °F 97% 29.73 in 9.0 mi North 6.9 mph - N/A   Clear